Location: Peebles
(55.6412°N, 3.1714°W)
Time: 11:48:43
(UTC+01:00)

NOAA 16 DEB - Pass Details

Date: 08 July 2022
Orbit: 830 x 847 km, 98.8° (Epoch: 13 August)

Event Time Altitude Azimuth Distance (km) Brightness Sun altitude
Exits shadow 00:23:01 - 215° (SW) 3,223 ? -11.0°
Reaches altitude 10° 00:25:44 10° 233° (SW) 2,442 ? -11.1°
Maximum altitude 00:29:18 18° 274° (W) 1,960 ? -11.2°
Drops below altitude 10° 00:32:54 10° 316° (NW) 2,459 ? -11.3°
Sets 00:36:07 0° 336° (NNW) 3,402 ? -11.4°
